Time,TemperatureF,DewpointF,PressureIn,WindDirection,WindDirectionDegrees,WindSpeedMPH,WindSpeedGustMPH,Humidity,HourlyPrecipIn,Conditions,Clouds,dailyrainin,SoftwareType,DateUTC
2013-12-09 00:03:00,25.0,18.8,30.06,NE,48,5.8,5.8,77,0.00,CLR,CLR,0.00,WeatherDisplay:10.36,2013-12-09 06:03:00,
2013-12-09 00:08:00,25.0,18.8,30.06,NE,52,6.9,6.9,77,0.00,CLR,CLR,0.00,WeatherDisplay:10.36,2013-12-09 06:08:00,
2013-12-09 00:13:00,25.0,18.8,30.06,NE,55,7.4,7.4,77,0.00,CLR,CLR,0.00,WeatherDisplay:10.36,2013-12-09 06:13:00,
2013-12-09 00:18:00,25.0,18.8,30.06,NE,47,3.6,3.6,77,0.00,CLR,CLR,0.00,WeatherDisplay:10.36,2013-12-09 06:18:00,
2013-12-09 00:23:00,25.0,18.8,30.06,NE,47,6.9,6.9,77,0.00,CLR,CLR,0.00,WeatherDisplay:10.36,2013-12-09 06:23:00,
2013-12-09 00:28:00,25.0,18.8,30.06,NE,48,3.6,3.6,77,0.00,CLR,CLR,0.00,WeatherDisplay:10.36,2013-12-09 06:28:00,
2013-12-09 00:33:00,25.0,18.8,30.06,ENE,65,7.4,7.4,77,0.00,CLR,CLR,0.00,WeatherDisplay:10.36,2013-12-09 06:33:00,
2013-12-09 00:38:00,24.8,18.3,30.06,NE,49,8.3,8.3,76,0.00,CLR,CLR,0.00,WeatherDisplay:10.36,2013-12-09 06:38:00,
2013-12-09 00:43:00,24.8,18.3,30.06,NE,48,12.1,12.1,76,0.00,CLR,CLR,0.00,WeatherDisplay:10.36,2013-12-09 06:43:00,
2013-12-09 00:48:00,24.8,18.3,30.06,NE,47,6.9,6.9,76,0.00,CLR,CLR,0.00,WeatherDisplay:10.36,2013-12-09 06:48:00,
2013-12-09 00:53:00,24.6,18.1,30.06,SE,131,5.8,5.8,76,0.00,CLR,CLR,0.00,WeatherDisplay:10.36,2013-12-09 06:53:00,
2013-12-09 00:58:00,24.4,18.0,30.06,NE,48,8.1,8.1,76,0.00,CLR,CLR,0.00,WeatherDisplay:10.36,2013-12-09 06:58:00,
2013-12-09 01:03:00,24.3,17.5,30.06,NE,49,6.9,6.9,75,0.00,CLR,CLR,0.00,WeatherDisplay:10.36,2013-12-09 07:03:00,
2013-12-09 01:08:00,24.1,17.3,30.06,NE,47,7.8,7.8,75,0.00,CLR,CLR,0.00,WeatherDisplay:10.36,2013-12-09 07:08:00,
2013-12-09 01:13:00,24.1,17.3,30.06,NE,48,10.4,10.4,75,0.00,CLR,CLR,0.00,WeatherDisplay:10.36,2013-12-09 07:13:00,
2013-12-09 01:18:00,24.1,17.3,30.06,NE,47,9.2,9.2,75,0.00,CLR,CLR,0.00,WeatherDisplay:10.36,2013-12-09 07:18:00,
2013-12-09 01:23:00,24.1,17.3,30.06,NE,48,7.4,7.4,75,0.00,CLR,CLR,0.00,WeatherDisplay:10.36,2013-12-09 07:23:00,
2013-12-09 01:28:00,24.1,17.0,30.06,NE,50,5.4,5.4,74,0.00,CLR,CLR,0.00,WeatherDisplay:10.36,2013-12-09 07:28:00,
2013-12-09 01:33:00,24.1,17.0,30.06,NE,49,3.6,3.6,74,0.00,CLR,CLR,0.00,WeatherDisplay:10.36,2013-12-09 07:33:00,
2013-12-09 01:38:00,24.1,17.0,30.08,NE,53,5.8,5.8,74,0.00,CLR,CLR,0.00,WeatherDisplay:10.36,2013-12-09 07:38:00,
2013-12-09 01:43:00,24.1,17.0,30.08,NE,49,4.6,4.6,74,0.00,CLR,CLR,0.00,WeatherDisplay:10.36,2013-12-09 07:43:00,
2013-12-09 01:48:00,24.1,16.7,30.08,NE,47,8.3,8.3,73,0.00,CLR,CLR,0.00,WeatherDisplay:10.36,2013-12-09 07:48:00,
2013-12-09 01:53:00,24.1,16.7,30.08,NE,47,6.9,6.9,73,0.00,CLR,CLR,0.00,WeatherDisplay:10.36,2013-12-09 07:53:00,
2013-12-09 01:58:00,24.1,16.7,30.08,NE,47,7.4,7.4,73,0.00,CLR,CLR,0.00,WeatherDisplay:10.36,2013-12-09 07:58:00,
2013-12-09 02:03:00,23.9,16.2,30.08,NE,48,8.1,8.1,72,0.00,CLR,CLR,0.00,WeatherDisplay:10.36,2013-12-09 08:03:00,
2013-12-09 02:08:00,23.7,16.0,30.08,NE,47,6.9,6.9,72,0.00,CLR,CLR,0.00,WeatherDisplay:10.36,2013-12-09 08:08:00,
2013-12-09 02:13:00,23.4,15.7,30.08,NE,48,7.4,7.4,72,0.00,CLR,CLR,0.00,WeatherDisplay:10.36,2013-12-09 08:13:00,
2013-12-09 02:18:00,23.0,15.0,30.08,NE,48,10.4,10.4,71,0.00,CLR,CLR,0.00,WeatherDisplay:10.36,2013-12-09 08:18:00,
2013-12-09 02:23:00,22.8,14.5,30.08,NE,47,6.9,6.9,70,0.00,CLR,CLR,0.00,WeatherDisplay:10.36,2013-12-09 08:23:00,
2013-12-09 02:28:00,22.5,14.1,30.08,NE,47,5.8,5.8,70,0.00,CLR,CLR,0.00,WeatherDisplay:10.36,2013-12-09 08:28:00,
2013-12-09 02:33:00,22.3,13.6,30.08,NE,47,5.8,5.8,69,0.00,CLR,CLR,0.00,WeatherDisplay:10.36,2013-12-09 08:33:00,
2013-12-09 02:38:00,22.1,13.5,30.11,NE,48,6.9,6.9,69,0.00,CLR,CLR,0.00,WeatherDisplay:10.36,2013-12-09 08:38:00,
2013-12-09 02:43:00,21.7,13.1,30.11,NE,47,6.7,6.7,69,0.00,CLR,CLR,0.00,WeatherDisplay:10.36,2013-12-09 08:43:00,
2013-12-09 02:48:00,21.6,12.6,30.11,NE,48,6.9,6.9,68,0.00,CLR,CLR,0.00,WeatherDisplay:10.36,2013-12-09 08:48:00,
2013-12-09 02:53:00,21.4,12.5,30.11,NE,48,6.3,6.3,68,0.00,CLR,CLR,0.00,WeatherDisplay:10.36,2013-12-09 08:53:00,
2013-12-09 02:58:00,21.2,11.9,30.11,NE,49,4.6,4.6,67,0.00,CLR,CLR,0.00,WeatherDisplay:10.36,2013-12-09 08:58:00,
2013-12-09 03:03:00,21.0,11.8,30.11,NE,48,7.4,7.4,67,0.00,CLR,CLR,0.00,WeatherDisplay:10.36,2013-12-09 09:03:00,
2013-12-09 03:08:00,20.8,11.6,30.11,NE,48,6.9,6.9,67,0.00,CLR,CLR,0.00,WeatherDisplay:10.36,2013-12-09 09:08:00,
2013-12-09 03:13:00,20.7,11.4,30.11,NE,49,8.1,8.1,67,0.00,CLR,CLR,0.00,WeatherDisplay:10.36,2013-12-09 09:13:00,
2013-12-09 03:18:00,20.5,11.3,30.11,NE,49,6.3,6.3,67,0.00,CLR,CLR,0.00,WeatherDisplay:10.36,2013-12-09 09:18:00,
2013-12-09 03:23:00,20.5,10.9,30.11,NE,46,6.9,6.9,66,0.00,CLR,CLR,0.00,WeatherDisplay:10.36,2013-12-09 09:23:00,
2013-12-09 03:28:00,20.3,10.7,30.11,NE,47,8.3,8.3,66,0.00,CLR,CLR,0.00,WeatherDisplay:10.36,2013-12-09 09:28:00,
2013-12-09 03:33:00,20.1,10.9,30.11,NE,49,7.4,7.4,67,0.00,CLR,CLR,0.00,WeatherDisplay:10.36,2013-12-09 09:33:00,
2013-12-09 03:38:00,20.1,10.6,30.11,NE,49,6.3,6.3,66,0.00,CLR,CLR,0.00,WeatherDisplay:10.36,2013-12-09 09:38:00,
2013-12-09 03:43:00,19.9,10.4,30.11,NE,49,7.4,7.4,66,0.00,CLR,CLR,0.00,WeatherDisplay:10.36,2013-12-09 09:43:00,
2013-12-09 03:48:00,19.8,10.2,30.11,NE,49,8.1,8.1,66,0.00,CLR,CLR,0.00,WeatherDisplay:10.36,2013-12-09 09:48:00,
2013-12-09 03:53:00,19.6,10.1,30.11,NE,48,5.8,5.8,66,0.00,CLR,CLR,0.00,WeatherDisplay:10.36,2013-12-09 09:53:00,
2013-12-09 03:58:00,19.6,10.1,30.11,NE,49,5.8,5.8,66,0.00,CLR,CLR,0.00,WeatherDisplay:10.36,2013-12-09 09:58:00,
2013-12-09 04:03:00,19.4,9.9,30.11,NE,47,5.8,5.8,66,0.00,CLR,CLR,0.00,WeatherDisplay:10.36,2013-12-09 10:03:00,
2013-12-09 04:08:00,19.2,9.7,30.11,ENE,58,8.3,8.3,66,0.00,CLR,CLR,0.00,WeatherDisplay:10.36,2013-12-09 10:08:00,
2013-12-09 04:13:00,19.0,9.5,30.11,NE,48,6.7,6.7,66,0.00,CLR,CLR,0.00,WeatherDisplay:10.36,2013-12-09 10:13:00,
2013-12-09 04:18:00,19.0,9.5,30.11,NE,48,5.8,5.8,66,0.00,CLR,CLR,0.00,WeatherDisplay:10.36,2013-12-09 10:18:00,
2013-12-09 04:23:00,19.0,9.5,30.11,NE,47,8.7,8.7,66,0.00,CLR,CLR,0.00,WeatherDisplay:10.36,2013-12-09 10:23:00,
2013-12-09 04:28:00,18.9,9.4,30.11,NE,49,4.9,4.9,66,0.00,CLR,CLR,0.00,WeatherDisplay:10.36,2013-12-09 10:28:00,
2013-12-09 04:33:00,18.9,9.4,30.11,NE,49,7.4,7.4,66,0.00,CLR,CLR,0.00,WeatherDisplay:10.36,2013-12-09 10:33:00,
2013-12-09 04:38:00,18.7,9.2,30.14,NE,48,6.9,6.9,66,0.00,CLR,CLR,0.00,WeatherDisplay:10.36,2013-12-09 10:38:00,
2013-12-09 04:43:00,18.5,9.0,30.14,NE,47,4.9,4.9,66,0.00,CLR,CLR,0.00,WeatherDisplay:10.36,2013-12-09 10:43:00,
2013-12-09 04:48:00,18.5,9.0,30.14,NE,47,6.9,6.9,66,0.00,CLR,CLR,0.00,WeatherDisplay:10.36,2013-12-09 10:48:00,
2013-12-09 04:53:00,18.3,9.2,30.14,NE,48,6.9,6.9,67,0.00,CLR,CLR,0.00,WeatherDisplay:10.36,2013-12-09 10:53:00,
2013-12-09 04:58:00,18.3,9.2,30.14,NE,48,6.3,6.3,67,0.00,CLR,CLR,0.00,WeatherDisplay:10.36,2013-12-09 10:58:00,
2013-12-09 05:03:00,18.3,9.2,30.14,NE,52,6.9,6.9,67,0.00,CLR,CLR,0.00,WeatherDisplay:10.36,2013-12-09 11:03:00,
2013-12-09 05:08:00,18.1,9.0,30.14,NE,48,5.8,5.8,67,0.00,CLR,CLR,0.00,WeatherDisplay:10.36,2013-12-09 11:08:00,
2013-12-09 05:09:00,18.1,9.0,30.14,NE,48,6.3,6.3,67,0.00,CLR,CLR,0.00,WeatherDisplay:10.36,2013-12-09 11:09:00,
2013-12-09 05:15:00,18.0,8.8,30.14,NE,49,5.8,5.8,67,0.00,CLR,CLR,0.00,WeatherDisplay:10.36,2013-12-09 11:15:00,
2013-12-09 05:20:00,17.8,8.7,30.14,NE,49,6.9,6.9,67,0.00,CLR,CLR,0.00,WeatherDisplay:10.36,2013-12-09 11:20:00,
2013-12-09 05:25:00,18.0,8.8,30.14,NE,48,4.6,4.6,67,0.00,CLR,CLR,0.00,WeatherDisplay:10.36,2013-12-09 11:25:00,
2013-12-09 05:30:00,18.5,9.7,30.14,NE,48,5.8,5.8,68,0.00,CLR,CLR,0.00,WeatherDisplay:10.36,2013-12-09 11:30:00,
2013-12-09 05:35:00,19.0,10.2,30.17,NE,48,4.9,4.9,68,0.00,CLR,CLR,0.00,WeatherDisplay:10.36,2013-12-09 11:35:00,
2013-12-09 05:40:00,19.2,10.4,30.17,NE,48,6.3,6.3,68,0.00,CLR,CLR,0.00,WeatherDisplay:10.36,2013-12-09 11:40:00,
2013-12-09 05:45:00,19.4,10.6,30.17,NE,49,6.3,6.3,68,0.00,CLR,CLR,0.00,WeatherDisplay:10.36,2013-12-09 11:45:00,
2013-12-09 05:50:00,19.6,10.7,30.17,NE,49,5.4,5.4,68,0.00,CLR,CLR,0.00,WeatherDisplay:10.36,2013-12-09 11:50:00,
2013-12-09 05:55:00,19.8,11.2,30.17,NE,48,6.3,6.3,69,0.00,CLR,CLR,0.00,WeatherDisplay:10.36,2013-12-09 11:55:00,
2013-12-09 06:00:00,19.6,10.7,30.17,NE,48,4.9,4.9,68,0.00,CLR,CLR,0.00,WeatherDisplay:10.36,2013-12-09 12:00:00,
2013-12-09 06:05:00,19.4,10.6,30.17,NE,48,4.9,4.9,68,0.00,CLR,CLR,0.00,WeatherDisplay:10.36,2013-12-09 12:05:00,
2013-12-09 06:10:00,19.0,10.2,30.17,NE,49,4.9,4.9,68,0.00,CLR,CLR,0.00,WeatherDisplay:10.36,2013-12-09 12:10:00,
2013-12-09 06:15:00,18.9,10.0,30.17,NE,49,4.6,4.6,68,0.00,CLR,CLR,0.00,WeatherDisplay:10.36,2013-12-09 12:15:00,
2013-12-09 06:20:00,18.9,10.0,30.17,NE,49,5.8,5.8,68,0.00,CLR,CLR,0.00,WeatherDisplay:10.36,2013-12-09 12:20:00,
2013-12-09 06:26:00,18.3,9.8,30.17,NE,49,0.0,4.0,69,0.00,CLR,CLR,0.00,WeatherDisplay:10.36,2013-12-09 12:26:00,
2013-12-09 06:31:00,18.0,9.5,30.17,NE,49,3.6,3.6,69,0.00,CLR,CLR,0.00,WeatherDisplay:10.36,2013-12-09 12:31:00,
2013-12-09 06:36:00,17.4,9.0,30.17,NE,49,4.0,4.0,69,0.00,CLR,CLR,0.00,WeatherDisplay:10.36,2013-12-09 12:36:00,
2013-12-09 06:41:00,17.1,8.6,30.17,NE,48,3.1,3.6,69,0.00,CLR,CLR,0.00,WeatherDisplay:10.36,2013-12-09 12:41:00,
2013-12-09 06:46:00,16.9,8.5,30.17,NE,48,4.6,4.6,69,0.00,CLR,CLR,0.00,WeatherDisplay:10.36,2013-12-09 12:46:00,
2013-12-09 06:51:00,16.5,8.1,30.17,NE,48,4.0,4.0,69,0.00,CLR,CLR,0.00,WeatherDisplay:10.36,2013-12-09 12:51:00,
2013-12-09 06:56:00,16.5,8.1,30.17,NE,49,4.0,4.9,69,0.00,CLR,CLR,0.00,WeatherDisplay:10.36,2013-12-09 12:56:00,
2013-12-09 07:01:00,16.3,8.3,30.17,NE,49,5.4,5.4,70,0.00,CLR,CLR,0.00,WeatherDisplay:10.36,2013-12-09 13:01:00,
2013-12-09 07:06:00,16.3,8.3,30.20,NE,48,4.5,4.5,70,0.00,CLR,CLR,0.00,WeatherDisplay:10.36,2013-12-09 13:06:00,
2013-12-09 07:11:00,16.2,8.1,30.20,NE,48,3.1,3.1,70,0.00,CLR,CLR,0.00,WeatherDisplay:10.36,2013-12-09 13:11:00,
2013-12-09 07:16:00,16.0,7.9,30.20,NE,48,4.0,4.0,70,0.00,CLR,CLR,0.00,WeatherDisplay:10.36,2013-12-09 13:16:00,
2013-12-09 07:21:00,15.8,7.7,30.20,NE,48,4.0,4.0,70,0.00,CLR,CLR,0.00,WeatherDisplay:10.36,2013-12-09 13:21:00,
2013-12-09 07:26:00,15.8,7.4,30.20,NE,48,4.6,4.6,69,0.00,CLR,CLR,0.00,WeatherDisplay:10.36,2013-12-09 13:26:00,
2013-12-09 07:31:00,15.6,7.6,30.20,NE,49,4.0,0.0,70,0.00,CLR,CLR,0.00,WeatherDisplay:10.36,2013-12-09 13:31:00,
2013-12-09 07:36:00,15.4,7.4,30.17,NE,49,3.1,0.0,70,0.00,CLR,CLR,0.00,WeatherDisplay:10.36,2013-12-09 13:36:00,
2013-12-09 07:41:00,15.3,6.9,30.17,NE,49,3.6,3.6,69,0.00,CLR,CLR,0.00,WeatherDisplay:10.36,2013-12-09 13:41:00,
2013-12-09 07:46:00,15.3,7.2,30.17,NE,49,3.6,3.6,70,0.00,CLR,CLR,0.00,WeatherDisplay:10.36,2013-12-09 13:46:00,
2013-12-09 07:51:00,15.3,7.2,30.17,NE,48,4.0,4.5,70,0.00,CLR,CLR,0.00,WeatherDisplay:10.36,2013-12-09 13:51:00,
2013-12-09 07:56:00,15.3,7.2,30.17,NE,48,4.5,4.5,70,0.00,CLR,CLR,0.00,WeatherDisplay:10.36,2013-12-09 13:56:00,
2013-12-09 08:01:00,15.6,7.6,30.17,NE,47,4.0,4.0,70,0.00,CLR,CLR,0.00,WeatherDisplay:10.36,2013-12-09 14:01:00,
2013-12-09 08:06:00,16.0,7.9,30.17,NE,49,4.0,5.4,70,0.00,CLR,CLR,0.00,WeatherDisplay:10.36,2013-12-09 14:06:00,
2013-12-09 08:11:00,16.3,8.6,30.17,SW,224,4.0,4.0,71,0.00,CLR,CLR,0.00,WeatherDisplay:10.36,2013-12-09 14:11:00,
2013-12-09 08:16:00,16.9,9.1,30.17,NE,48,4.5,4.5,71,0.00,CLR,CLR,0.00,WeatherDisplay:10.36,2013-12-09 14:16:00,
2013-12-09 08:21:00,17.2,9.4,30.20,NE,48,4.0,4.9,71,0.00,CLR,CLR,0.00,WeatherDisplay:10.36,2013-12-09 14:21:00,
2013-12-09 08:26:00,18.0,10.1,30.20,NE,49,4.9,4.9,71,0.00,CLR,CLR,0.00,WeatherDisplay:10.36,2013-12-09 14:26:00,
2013-12-09 08:31:00,18.3,10.5,30.20,NE,49,0.0,4.9,71,0.00,CLR,CLR,0.00,WeatherDisplay:10.36,2013-12-09 14:31:00,
2013-12-09 08:36:00,18.9,11.0,30.20,NE,49,4.9,4.9,71,0.00,CLR,CLR,0.00,WeatherDisplay:10.36,2013-12-09 14:36:00,
2013-12-09 08:41:00,19.4,11.5,30.20,NE,47,5.4,5.4,71,0.00,CLR,CLR,0.00,WeatherDisplay:10.36,2013-12-09 14:41:00,
2013-12-09 08:46:00,19.9,12.0,30.20,NE,47,4.5,5.4,71,0.00,CLR,CLR,0.00,WeatherDisplay:10.36,2013-12-09 14:46:00,
2013-12-09 08:51:00,20.5,12.6,30.23,NE,48,5.8,5.8,71,0.00,CLR,CLR,0.00,WeatherDisplay:10.36,2013-12-09 14:51:00,
2013-12-09 08:56:00,20.8,12.6,30.23,NE,48,4.5,4.5,70,0.00,CLR,CLR,0.00,WeatherDisplay:10.36,2013-12-09 14:56:00,
2013-12-09 09:01:00,20.8,12.3,30.23,NE,47,6.9,6.9,69,0.00,CLR,CLR,0.00,WeatherDisplay:10.36,2013-12-09 15:01:00,
2013-12-09 09:06:00,20.7,11.8,30.23,NE,48,4.9,4.9,68,0.00,CLR,CLR,0.00,WeatherDisplay:10.36,2013-12-09 15:06:00,
2013-12-09 09:11:00,20.5,11.3,30.23,NE,48,4.6,0.0,67,0.00,CLR,CLR,0.00,WeatherDisplay:10.36,2013-12-09 15:11:00,
2013-12-09 09:16:00,20.3,10.7,30.23,NE,47,5.8,5.8,66,0.00,CLR,CLR,0.00,WeatherDisplay:10.36,2013-12-09 15:16:00,
2013-12-09 09:21:00,20.3,10.7,30.26,NE,48,3.6,3.6,66,0.00,CLR,CLR,0.00,WeatherDisplay:10.36,2013-12-09 15:21:00,
2013-12-09 09:26:00,20.3,10.4,30.26,NE,48,3.6,3.6,65,0.00,CLR,CLR,0.00,WeatherDisplay:10.36,2013-12-09 15:26:00,
2013-12-09 09:31:00,20.5,10.6,30.26,NE,48,7.4,7.4,65,0.00,CLR,CLR,0.00,WeatherDisplay:10.36,2013-12-09 15:31:00,
2013-12-09 09:36:00,20.8,10.6,30.26,NE,47,0.0,4.0,64,0.00,CLR,CLR,0.00,WeatherDisplay:10.36,2013-12-09 15:36:00,
2013-12-09 09:41:00,21.4,11.1,30.26,NE,47,6.3,6.3,64,0.00,CLR,CLR,0.00,WeatherDisplay:10.36,2013-12-09 15:41:00,
2013-12-09 09:46:00,21.9,11.2,30.26,NE,48,7.4,7.4,63,0.00,CLR,CLR,0.00,WeatherDisplay:10.36,2013-12-09 15:46:00,
2013-12-09 09:51:00,22.1,11.1,30.29,NE,47,3.6,5.4,62,0.00,CLR,CLR,0.00,WeatherDisplay:10.36,2013-12-09 15:51:00,
2013-12-09 09:56:00,22.3,10.5,30.29,NE,49,7.8,7.8,60,0.00,CLR,CLR,0.00,WeatherDisplay:10.36,2013-12-09 15:56:00,
2013-12-09 10:01:00,22.3,10.1,30.29,NE,49,8.7,8.7,59,0.00,CLR,CLR,0.00,WeatherDisplay:10.36,2013-12-09 16:01:00,
2013-12-09 10:06:00,22.3,9.7,30.29,NE,47,4.9,4.9,58,0.00,CLR,CLR,0.00,WeatherDisplay:10.36,2013-12-09 16:06:00,
2013-12-09 10:11:00,22.3,9.3,30.29,NE,48,6.9,6.9,57,0.00,CLR,CLR,0.00,WeatherDisplay:10.36,2013-12-09 16:11:00,
2013-12-09 10:16:00,22.3,8.9,30.29,NE,50,8.3,8.3,56,0.00,CLR,CLR,0.00,WeatherDisplay:10.36,2013-12-09 16:16:00,
2013-12-09 10:21:00,22.3,8.5,30.29,NE,48,6.7,6.7,55,0.00,CLR,CLR,0.00,WeatherDisplay:10.36,2013-12-09 16:21:00,
2013-12-09 10:26:00,22.5,8.7,30.29,NE,48,6.3,6.3,55,0.00,CLR,CLR,0.00,WeatherDisplay:10.36,2013-12-09 16:26:00,
2013-12-09 10:31:00,22.5,8.3,30.29,NE,53,9.6,9.6,54,0.00,CLR,CLR,0.00,WeatherDisplay:10.36,2013-12-09 16:31:00,
2013-12-09 10:36:00,22.3,7.7,30.29,NE,47,6.9,6.9,53,0.00,CLR,CLR,0.00,WeatherDisplay:10.36,2013-12-09 16:36:00,
2013-12-09 10:41:00,22.3,7.3,30.29,NE,50,7.8,7.8,52,0.00,CLR,CLR,0.00,WeatherDisplay:10.36,2013-12-09 16:41:00,
2013-12-09 10:46:00,22.3,7.3,30.29,NE,47,7.8,7.8,52,0.00,CLR,CLR,0.00,WeatherDisplay:10.36,2013-12-09 16:46:00,
2013-12-09 10:51:00,22.5,7.5,30.29,NE,49,6.3,6.3,52,0.00,CLR,CLR,0.00,WeatherDisplay:10.36,2013-12-09 16:51:00,
2013-12-09 10:56:00,22.6,7.6,30.29,NE,48,6.9,6.9,52,0.00,CLR,CLR,0.00,WeatherDisplay:10.36,2013-12-09 16:56:00,
2013-12-09 11:01:00,23.0,8.0,30.29,NE,48,7.4,7.4,52,0.00,CLR,CLR,0.00,WeatherDisplay:10.36,2013-12-09 17:01:00,
2013-12-09 11:06:00,23.4,8.3,30.29,NE,49,6.9,6.9,52,0.00,CLR,CLR,0.00,WeatherDisplay:10.36,2013-12-09 17:06:00,
2013-12-09 11:11:00,23.9,8.4,30.29,NE,47,6.7,6.7,51,0.00,CLR,CLR,0.00,WeatherDisplay:10.36,2013-12-09 17:11:00,
2013-12-09 11:16:00,23.9,7.9,30.29,NE,47,5.4,6.7,50,0.00,CLR,CLR,0.00,WeatherDisplay:10.36,2013-12-09 17:16:00,
2013-12-09 11:21:00,23.9,7.5,30.29,NE,48,5.8,5.8,49,0.00,CLR,CLR,0.00,WeatherDisplay:10.36,2013-12-09 17:21:00,
2013-12-09 11:26:00,23.9,7.5,30.29,NE,49,4.0,4.5,49,0.00,CLR,CLR,0.00,WeatherDisplay:10.36,2013-12-09 17:26:00,
2013-12-09 11:31:00,24.1,7.2,30.29,NE,47,5.4,5.4,48,0.00,CLR,CLR,0.00,WeatherDisplay:10.36,2013-12-09 17:31:00,
2013-12-09 11:36:00,24.3,7.4,30.29,NE,48,6.9,6.9,48,0.00,CLR,CLR,0.00,WeatherDisplay:10.36,2013-12-09 17:36:00,
2013-12-09 11:41:00,24.1,7.2,30.29,NE,48,8.7,8.7,48,0.00,CLR,CLR,0.00,WeatherDisplay:10.36,2013-12-09 17:41:00,
2013-12-09 11:46:00,24.1,6.7,30.29,ENE,58,7.4,7.4,47,0.00,CLR,CLR,0.00,WeatherDisplay:10.36,2013-12-09 17:46:00,
2013-12-09 11:51:00,24.1,6.7,30.29,NE,48,6.3,6.7,47,0.00,CLR,CLR,0.00,WeatherDisplay:10.36,2013-12-09 17:51:00,
2013-12-09 11:56:00,24.1,6.7,30.29,NE,45,0.0,5.8,47,0.00,CLR,CLR,0.00,WeatherDisplay:10.36,2013-12-09 17:56:00,
2013-12-09 12:01:00,24.1,6.7,30.29,NE,48,6.7,6.7,47,0.00,CLR,CLR,0.00,WeatherDisplay:10.36,2013-12-09 18:01:00,
2013-12-09 12:06:00,24.3,6.9,30.29,NE,47,9.6,9.6,47,0.00,CLR,CLR,0.00,WeatherDisplay:10.36,2013-12-09 18:06:00,
2013-12-09 12:11:00,24.3,6.9,30.29,ENE,58,8.1,8.1,47,0.00,CLR,CLR,0.00,WeatherDisplay:10.36,2013-12-09 18:11:00,
2013-12-09 12:16:00,23.9,6.1,30.29,NE,47,5.4,5.4,46,0.00,CLR,CLR,0.00,WeatherDisplay:10.36,2013-12-09 18:16:00,
2013-12-09 12:21:00,23.9,6.6,30.29,NE,48,7.4,7.4,47,0.00,CLR,CLR,0.00,WeatherDisplay:10.36,2013-12-09 18:21:00,
2013-12-09 12:26:00,23.7,6.4,30.29,NE,48,6.9,6.9,47,0.00,CLR,CLR,0.00,WeatherDisplay:10.36,2013-12-09 18:26:00,
2013-12-09 12:31:00,23.7,6.4,30.29,NE,47,10.1,10.1,47,0.00,CLR,CLR,0.00,WeatherDisplay:10.36,2013-12-09 18:31:00,
2013-12-09 12:36:00,23.5,5.8,30.29,NE,48,6.3,6.3,46,0.00,CLR,CLR,0.00,WeatherDisplay:10.36,2013-12-09 18:36:00,
2013-12-09 12:41:00,23.4,6.1,30.29,NE,49,8.7,8.7,47,0.00,CLR,CLR,0.00,WeatherDisplay:10.36,2013-12-09 18:41:00,
2013-12-09 12:46:00,23.5,6.2,30.29,NE,47,4.0,5.8,47,0.00,CLR,CLR,0.00,WeatherDisplay:10.36,2013-12-09 18:46:00,
2013-12-09 12:51:00,23.5,6.2,30.29,NE,48,14.3,14.3,47,0.00,CLR,CLR,0.00,WeatherDisplay:10.36,2013-12-09 18:51:00,
2013-12-09 12:56:00,23.4,6.1,30.29,NE,47,9.6,9.6,47,0.00,CLR,CLR,0.00,WeatherDisplay:10.36,2013-12-09 18:56:00,
2013-12-09 13:01:00,23.2,5.4,30.29,NE,48,5.8,6.7,46,0.00,CLR,CLR,0.00,WeatherDisplay:10.36,2013-12-09 19:01:00,
2013-12-09 13:06:00,23.2,5.4,30.26,NE,48,8.7,8.7,46,0.00,CLR,CLR,0.00,WeatherDisplay:10.36,2013-12-09 19:06:00,
2013-12-09 13:11:00,23.4,5.6,30.26,NE,49,7.4,7.4,46,0.00,CLR,CLR,0.00,WeatherDisplay:10.36,2013-12-09 19:11:00,
2013-12-09 13:16:00,23.5,5.8,30.26,NE,48,7.8,7.8,46,0.00,CLR,CLR,0.00,WeatherDisplay:10.36,2013-12-09 19:16:00,
2013-12-09 13:21:00,23.7,6.4,30.26,NE,48,4.9,5.8,47,0.00,CLR,CLR,0.00,WeatherDisplay:10.36,2013-12-09 19:21:00,
2013-12-09 13:26:00,23.9,6.1,30.26,NE,47,9.2,9.2,46,0.00,CLR,CLR,0.00,WeatherDisplay:10.36,2013-12-09 19:26:00,
2013-12-09 13:31:00,24.3,6.4,30.26,NE,48,7.4,7.4,46,0.00,CLR,CLR,0.00,WeatherDisplay:10.36,2013-12-09 19:31:00,
2013-12-09 13:36:00,24.4,6.6,30.26,NE,48,6.3,6.3,46,0.00,CLR,CLR,0.00,WeatherDisplay:10.36,2013-12-09 19:36:00,
2013-12-09 13:41:00,24.6,6.8,30.26,NE,47,0.0,4.5,46,0.00,CLR,CLR,0.00,WeatherDisplay:10.36,2013-12-09 19:41:00,
2013-12-09 13:46:00,24.6,6.8,30.26,NE,50,4.5,5.8,46,0.00,CLR,CLR,0.00,WeatherDisplay:10.36,2013-12-09 19:46:00,
2013-12-09 13:51:00,24.8,6.9,30.26,NE,47,4.5,5.4,46,0.00,CLR,CLR,0.00,WeatherDisplay:10.36,2013-12-09 19:51:00,
2013-12-09 13:56:00,24.8,6.4,30.26,NE,47,6.3,7.4,45,0.00,CLR,CLR,0.00,WeatherDisplay:10.36,2013-12-09 19:56:00,
2013-12-09 14:01:00,24.8,6.4,30.26,NE,48,0.0,6.7,45,0.00,CLR,CLR,0.00,WeatherDisplay:10.36,2013-12-09 20:01:00,
2013-12-09 14:06:00,24.6,6.3,30.26,NE,47,8.3,8.3,45,0.00,CLR,CLR,0.00,WeatherDisplay:10.36,2013-12-09 20:06:00,
2013-12-09 14:11:00,24.6,6.3,30.26,NE,47,6.9,6.9,45,0.00,CLR,CLR,0.00,WeatherDisplay:10.36,2013-12-09 20:11:00,
2013-12-09 14:16:00,24.6,6.3,30.26,NE,48,10.1,10.1,45,0.00,CLR,CLR,0.00,WeatherDisplay:10.36,2013-12-09 20:16:00,
2013-12-09 14:21:00,24.4,5.6,30.26,ENE,58,8.3,8.3,44,0.00,CLR,CLR,0.00,WeatherDisplay:10.36,2013-12-09 20:21:00,
2013-12-09 14:26:00,24.3,5.4,30.26,NE,49,4.9,4.9,44,0.00,CLR,CLR,0.00,WeatherDisplay:10.36,2013-12-09 20:26:00,
2013-12-09 14:31:00,24.1,5.3,30.26,NE,47,6.9,6.9,44,0.00,CLR,CLR,0.00,WeatherDisplay:10.36,2013-12-09 20:31:00,
2013-12-09 14:36:00,23.9,5.1,30.26,NE,46,5.4,5.8,44,0.00,CLR,CLR,0.00,WeatherDisplay:10.36,2013-12-09 20:36:00,
2013-12-09 14:41:00,23.9,5.1,30.26,NE,50,8.3,8.3,44,0.00,CLR,CLR,0.00,WeatherDisplay:10.36,2013-12-09 20:41:00,
2013-12-09 14:46:00,23.5,4.8,30.26,NE,49,7.4,7.4,44,0.00,CLR,CLR,0.00,WeatherDisplay:10.36,2013-12-09 20:46:00,
2013-12-09 14:51:00,23.4,4.6,30.26,NE,48,6.3,6.3,44,0.00,CLR,CLR,0.00,WeatherDisplay:10.36,2013-12-09 20:51:00,
2013-12-09 14:56:00,23.2,4.5,30.26,East,99,6.9,6.9,44,0.00,CLR,CLR,0.00,WeatherDisplay:10.36,2013-12-09 20:56:00,
2013-12-09 15:01:00,23.2,4.5,30.26,ENE,67,7.4,7.4,44,0.00,CLR,CLR,0.00,WeatherDisplay:10.36,2013-12-09 21:01:00,
2013-12-09 15:06:00,23.0,4.3,30.26,NE,48,8.7,8.7,44,0.00,CLR,CLR,0.00,WeatherDisplay:10.36,2013-12-09 21:06:00,
2013-12-09 15:11:00,22.6,4.0,30.26,NE,46,3.6,3.6,44,0.00,CLR,CLR,0.00,WeatherDisplay:10.36,2013-12-09 21:11:00,
2013-12-09 15:16:00,22.6,4.0,30.26,NE,47,4.9,4.9,44,0.00,CLR,CLR,0.00,WeatherDisplay:10.36,2013-12-09 21:16:00,
2013-12-09 15:21:00,22.6,4.0,30.26,NE,48,8.3,8.3,44,0.00,CLR,CLR,0.00,WeatherDisplay:10.36,2013-12-09 21:21:00,
2013-12-09 15:26:00,22.5,3.8,30.26,NE,49,6.9,6.9,44,0.00,CLR,CLR,0.00,WeatherDisplay:10.36,2013-12-09 21:26:00,
2013-12-09 15:31:00,22.3,3.6,30.26,NE,47,7.4,7.4,44,0.00,CLR,CLR,0.00,WeatherDisplay:10.36,2013-12-09 21:31:00,
2013-12-09 15:36:00,22.1,3.5,30.26,NE,48,5.4,5.4,44,0.00,CLR,CLR,0.00,WeatherDisplay:10.36,2013-12-09 21:36:00,
2013-12-09 15:41:00,21.9,3.8,30.26,NE,48,4.9,4.9,45,0.00,CLR,CLR,0.00,WeatherDisplay:10.36,2013-12-09 21:41:00,
2013-12-09 15:46:00,21.7,3.6,30.26,NE,48,6.9,6.9,45,0.00,CLR,CLR,0.00,WeatherDisplay:10.36,2013-12-09 21:46:00,
2013-12-09 15:51:00,21.6,3.5,30.26,NE,48,4.0,4.0,45,0.00,CLR,CLR,0.00,WeatherDisplay:10.36,2013-12-09 21:51:00,
2013-12-09 15:56:00,21.6,3.5,30.26,NE,47,5.4,5.4,45,0.00,CLR,CLR,0.00,WeatherDisplay:10.36,2013-12-09 21:56:00,
2013-12-09 16:01:00,21.4,3.3,30.26,NE,49,4.9,4.9,45,0.00,CLR,CLR,0.00,WeatherDisplay:10.36,2013-12-09 22:01:00,
2013-12-09 16:06:00,21.2,3.1,30.26,NE,48,6.7,6.7,45,0.00,CLR,CLR,0.00,WeatherDisplay:10.36,2013-12-09 22:06:00,
2013-12-09 16:11:00,21.2,3.1,30.26,NE,47,5.4,5.4,45,0.00,CLR,CLR,0.00,WeatherDisplay:10.36,2013-12-09 22:11:00,
2013-12-09 16:16:00,20.8,2.8,30.26,NE,52,6.9,6.9,45,0.00,CLR,CLR,0.00,WeatherDisplay:10.36,2013-12-09 22:16:00,
2013-12-09 16:21:00,20.7,2.6,30.26,NE,48,3.6,3.6,45,0.00,CLR,CLR,0.00,WeatherDisplay:10.36,2013-12-09 22:21:00,
2013-12-09 16:26:00,20.5,2.5,30.26,NE,50,4.0,4.0,45,0.00,CLR,CLR,0.00,WeatherDisplay:10.36,2013-12-09 22:26:00,
2013-12-09 16:31:00,20.5,2.5,30.26,NE,48,4.9,4.9,45,0.00,CLR,CLR,0.00,WeatherDisplay:10.36,2013-12-09 22:31:00,
2013-12-09 16:36:00,20.5,2.5,30.26,NE,47,4.5,4.5,45,0.00,CLR,CLR,0.00,WeatherDisplay:10.36,2013-12-09 22:36:00,
2013-12-09 16:41:00,20.3,2.3,30.26,NE,48,0.0,5.8,45,0.00,CLR,CLR,0.00,WeatherDisplay:10.36,2013-12-09 22:41:00,
2013-12-09 16:46:00,20.1,2.1,30.26,NE,49,4.9,5.8,45,0.00,CLR,CLR,0.00,WeatherDisplay:10.36,2013-12-09 22:46:00,
2013-12-09 16:51:00,20.1,2.1,30.26,NE,49,6.9,6.9,45,0.00,CLR,CLR,0.00,WeatherDisplay:10.36,2013-12-09 22:51:00,
2013-12-09 16:56:00,19.9,2.0,30.26,NE,48,4.9,4.9,45,0.00,CLR,CLR,0.00,WeatherDisplay:10.36,2013-12-09 22:56:00,
2013-12-09 17:01:00,19.9,2.0,30.26,NE,48,4.9,4.9,45,0.00,CLR,CLR,0.00,WeatherDisplay:10.36,2013-12-09 23:01:00,
2013-12-09 17:06:00,19.8,1.8,30.26,NE,48,4.0,4.0,45,0.00,CLR,CLR,0.00,WeatherDisplay:10.36,2013-12-09 23:06:00,
2013-12-09 17:11:00,19.8,1.8,30.26,NE,48,3.1,3.6,45,0.00,CLR,CLR,0.00,WeatherDisplay:10.36,2013-12-09 23:11:00,
2013-12-09 17:16:00,19.8,2.3,30.26,NE,48,4.0,4.5,46,0.00,CLR,CLR,0.00,WeatherDisplay:10.36,2013-12-09 23:16:00,
2013-12-09 17:21:00,19.6,2.1,30.26,NE,47,5.8,5.8,46,0.00,CLR,CLR,0.00,WeatherDisplay:10.36,2013-12-09 23:21:00,
2013-12-09 17:26:00,19.4,2.0,30.26,NE,48,4.0,4.0,46,0.00,CLR,CLR,0.00,WeatherDisplay:10.36,2013-12-09 23:26:00,
2013-12-09 17:31:00,19.4,2.0,30.26,NE,47,6.9,6.9,46,0.00,CLR,CLR,0.00,WeatherDisplay:10.36,2013-12-09 23:31:00,
2013-12-09 17:36:00,19.4,2.0,30.26,NE,48,3.6,4.0,46,0.00,CLR,CLR,0.00,WeatherDisplay:10.36,2013-12-09 23:36:00,
2013-12-09 17:41:00,19.2,1.8,30.26,NE,49,4.9,4.9,46,0.00,CLR,CLR,0.00,WeatherDisplay:10.36,2013-12-09 23:41:00,
2013-12-09 17:46:00,19.2,1.8,30.26,NE,48,4.5,4.5,46,0.00,CLR,CLR,0.00,WeatherDisplay:10.36,2013-12-09 23:46:00,
2013-12-09 17:51:00,19.2,1.8,30.26,NE,48,4.0,4.0,46,0.00,CLR,CLR,0.00,WeatherDisplay:10.36,2013-12-09 23:51:00,
2013-12-09 17:56:00,19.2,1.8,30.26,NE,48,4.9,4.9,46,0.00,CLR,CLR,0.00,WeatherDisplay:10.36,2013-12-09 23:56:00,
2013-12-09 18:01:00,19.0,1.6,30.26,NE,48,0.0,0.0,46,0.00,CLR,CLR,0.00,WeatherDisplay:10.36,2013-12-10 00:01:00,
2013-12-09 18:06:00,19.0,1.6,30.26,NE,48,6.9,6.9,46,0.00,CLR,CLR,0.00,WeatherDisplay:10.36,2013-12-10 00:06:00,
2013-12-09 18:11:00,19.0,1.6,30.26,NE,48,4.9,4.9,46,0.00,CLR,CLR,0.00,WeatherDisplay:10.36,2013-12-10 00:11:00,
2013-12-09 18:16:00,18.9,1.5,30.26,NE,47,2.7,0.0,46,0.00,CLR,CLR,0.00,WeatherDisplay:10.36,2013-12-10 00:16:00,
2013-12-09 18:21:00,18.9,1.5,30.26,NE,48,3.6,4.0,46,0.00,CLR,CLR,0.00,WeatherDisplay:10.36,2013-12-10 00:21:00,
2013-12-09 18:26:00,18.9,1.5,30.26,NE,49,0.0,2.7,46,0.00,CLR,CLR,0.00,WeatherDisplay:10.36,2013-12-10 00:26:00,
2013-12-09 18:31:00,18.9,1.5,30.26,NE,49,0.0,2.7,46,0.00,CLR,CLR,0.00,WeatherDisplay:10.36,2013-12-10 00:31:00,
2013-12-09 18:36:00,18.9,1.5,30.26,NE,49,4.0,4.5,46,0.00,CLR,CLR,0.00,WeatherDisplay:10.36,2013-12-10 00:36:00,
2013-12-09 18:41:00,18.9,1.5,30.26,NE,48,4.0,4.0,46,0.00,CLR,CLR,0.00,WeatherDisplay:10.36,2013-12-10 00:41:00,
2013-12-09 18:46:00,18.5,1.1,30.26,NE,48,4.0,4.0,46,0.00,CLR,CLR,0.00,WeatherDisplay:10.36,2013-12-10 00:46:00,
2013-12-09 18:51:00,18.5,1.1,30.26,NE,48,4.0,4.0,46,0.00,CLR,CLR,0.00,WeatherDisplay:10.36,2013-12-10 00:51:00,
2013-12-09 18:56:00,18.5,1.1,30.26,NE,47,3.1,3.1,46,0.00,CLR,CLR,0.00,WeatherDisplay:10.36,2013-12-10 00:56:00,
2013-12-09 19:01:00,18.5,1.1,30.26,NE,48,3.6,3.6,46,0.00,CLR,CLR,0.00,WeatherDisplay:10.36,2013-12-10 01:01:00,
2013-12-09 19:06:00,18.5,1.1,30.26,NE,48,4.9,0.0,46,0.00,CLR,CLR,0.00,WeatherDisplay:10.36,2013-12-10 01:06:00,
2013-12-09 19:11:00,18.3,1.0,30.26,NE,47,3.1,0.0,46,0.00,CLR,CLR,0.00,WeatherDisplay:10.36,2013-12-10 01:11:00,
2013-12-09 19:16:00,18.1,0.8,30.26,ENE,77,3.1,3.1,46,0.00,CLR,CLR,0.00,WeatherDisplay:10.36,2013-12-10 01:16:00,
2013-12-09 19:21:00,18.3,1.0,30.26,NE,50,4.0,4.0,46,0.00,CLR,CLR,0.00,WeatherDisplay:10.36,2013-12-10 01:21:00,
2013-12-09 19:26:00,18.9,1.9,30.26,NE,48,3.1,3.1,47,0.00,CLR,CLR,0.00,WeatherDisplay:10.36,2013-12-10 01:26:00,
2013-12-09 19:31:00,19.4,2.4,30.26,ENE,65,0.0,0.0,47,0.00,CLR,CLR,0.00,WeatherDisplay:10.36,2013-12-10 01:31:00,
2013-12-09 19:36:00,19.6,2.6,30.26,NE,48,4.0,4.0,47,0.00,CLR,CLR,0.00,WeatherDisplay:10.36,2013-12-10 01:36:00,
2013-12-09 19:41:00,19.6,3.0,30.26,ENE,66,5.8,5.8,48,0.00,CLR,CLR,0.00,WeatherDisplay:10.36,2013-12-10 01:41:00,
2013-12-09 19:46:00,19.4,2.9,30.26,NE,48,4.5,4.5,48,0.00,CLR,CLR,0.00,WeatherDisplay:10.36,2013-12-10 01:46:00,
2013-12-09 19:51:00,19.6,3.5,30.26,NE,48,0.0,0.0,49,0.00,CLR,CLR,0.00,WeatherDisplay:10.36,2013-12-10 01:51:00,
2013-12-09 19:56:00,19.8,3.7,30.26,NE,47,0.0,0.0,49,0.00,CLR,CLR,0.00,WeatherDisplay:10.36,2013-12-10 01:56:00,
2013-12-09 20:01:00,19.8,3.7,30.26,NE,48,0.0,0.0,49,0.00,CLR,CLR,0.00,WeatherDisplay:10.36,2013-12-10 02:01:00,
2013-12-09 20:06:00,19.4,2.9,30.26,NE,48,0.0,0.0,48,0.00,CLR,CLR,0.00,WeatherDisplay:10.36,2013-12-10 02:06:00,
2013-12-09 20:11:00,19.0,2.5,30.26,NE,49,0.0,0.0,48,0.00,CLR,CLR,0.00,WeatherDisplay:10.36,2013-12-10 02:11:00,
2013-12-09 20:16:00,18.5,2.0,30.26,NE,48,0.0,4.0,48,0.00,CLR,CLR,0.00,WeatherDisplay:10.36,2013-12-10 02:16:00,
2013-12-09 20:21:00,18.1,1.7,30.26,NE,49,0.0,0.0,48,0.00,CLR,CLR,0.00,WeatherDisplay:10.36,2013-12-10 02:21:00,
2013-12-09 20:26:00,18.0,1.5,30.26,NE,49,0.0,0.0,48,0.00,CLR,CLR,0.00,WeatherDisplay:10.36,2013-12-10 02:26:00,
2013-12-09 20:31:00,17.8,0.9,30.26,NE,48,2.7,2.7,47,0.00,CLR,CLR,0.00,WeatherDisplay:10.36,2013-12-10 02:31:00,
2013-12-09 20:36:00,17.6,0.8,30.26,NE,48,0.0,0.0,47,0.00,CLR,CLR,0.00,WeatherDisplay:10.36,2013-12-10 02:36:00,
2013-12-09 20:41:00,17.6,0.8,30.26,NE,48,0.0,0.0,47,0.00,CLR,CLR,0.00,WeatherDisplay:10.36,2013-12-10 02:41:00,
2013-12-09 20:46:00,17.6,0.8,30.26,NE,48,4.5,0.0,47,0.00,CLR,CLR,0.00,WeatherDisplay:10.36,2013-12-10 02:46:00,
2013-12-09 20:52:00,17.6,0.8,30.26,NE,48,5.8,5.8,47,0.00,CLR,CLR,0.00,WeatherDisplay:10.36,2013-12-10 02:52:00,
2013-12-09 20:57:00,17.4,0.6,30.26,NE,49,3.6,3.6,47,0.00,CLR,CLR,0.00,WeatherDisplay:10.36,2013-12-10 02:57:00,
2013-12-09 21:02:00,17.4,0.6,30.26,NE,48,5.4,5.4,47,0.00,CLR,CLR,0.00,WeatherDisplay:10.36,2013-12-10 03:02:00,
2013-12-09 21:07:00,17.2,0.4,30.26,NE,50,4.0,4.0,47,0.00,CLR,CLR,0.00,WeatherDisplay:10.36,2013-12-10 03:07:00,
2013-12-09 21:12:00,17.2,0.4,30.26,NE,49,3.6,3.6,47,0.00,CLR,CLR,0.00,WeatherDisplay:10.36,2013-12-10 03:12:00,
2013-12-09 21:17:00,17.1,0.3,30.26,NE,48,4.6,4.6,47,0.00,CLR,CLR,0.00,WeatherDisplay:10.36,2013-12-10 03:17:00,
2013-12-09 21:22:00,16.9,0.1,30.26,NE,49,4.6,4.6,47,0.00,CLR,CLR,0.00,WeatherDisplay:10.36,2013-12-10 03:22:00,
2013-12-09 21:27:00,16.7,-0.1,30.26,East,82,5.8,5.8,47,0.00,CLR,CLR,0.00,WeatherDisplay:10.36,2013-12-10 03:27:00,
2013-12-09 21:32:00,16.7,0.4,30.26,NE,52,3.6,3.6,48,0.00,CLR,CLR,0.00,WeatherDisplay:10.36,2013-12-10 03:32:00,
2013-12-09 21:37:00,16.5,0.2,30.26,NE,53,4.9,4.9,48,0.00,CLR,CLR,0.00,WeatherDisplay:10.36,2013-12-10 03:37:00,
2013-12-09 21:42:00,16.3,0.0,30.26,NE,47,4.9,4.9,48,0.00,CLR,CLR,0.00,WeatherDisplay:10.36,2013-12-10 03:42:00,
2013-12-09 21:48:00,16.2,-0.1,30.26,NE,48,4.0,4.0,48,0.00,CLR,CLR,0.00,WeatherDisplay:10.36,2013-12-10 03:48:00,
2013-12-09 21:54:00,16.0,-0.3,30.26,NE,50,4.6,4.6,48,0.00,CLR,CLR,0.00,WeatherDisplay:10.36,2013-12-10 03:54:00,
2013-12-09 21:59:00,15.8,-0.5,30.26,NE,49,4.9,4.9,48,0.00,CLR,CLR,0.00,WeatherDisplay:10.36,2013-12-10 03:59:00,
2013-12-09 22:04:00,15.6,-0.6,30.26,NE,47,6.3,6.3,48,0.00,CLR,CLR,0.00,WeatherDisplay:10.36,2013-12-10 04:04:00,
2013-12-09 22:09:00,15.4,-0.8,30.26,NE,48,5.8,5.8,48,0.00,CLR,CLR,0.00,WeatherDisplay:10.36,2013-12-10 04:09:00,
2013-12-09 22:14:00,15.3,-1.0,30.26,NE,48,5.8,5.8,48,0.00,CLR,CLR,0.00,WeatherDisplay:10.36,2013-12-10 04:14:00,
2013-12-09 22:20:00,15.1,-1.1,30.26,NE,46,4.6,4.6,48,0.00,CLR,CLR,0.00,WeatherDisplay:10.36,2013-12-10 04:20:00,
2013-12-09 22:25:00,14.9,-1.3,30.26,NE,47,4.9,4.9,48,0.00,CLR,CLR,0.00,WeatherDisplay:10.36,2013-12-10 04:25:00,
2013-12-09 22:30:00,14.9,-0.8,30.26,NE,48,4.5,4.5,49,0.00,CLR,CLR,0.00,WeatherDisplay:10.36,2013-12-10 04:30:00,
2013-12-09 22:35:00,14.7,-1.0,30.26,NE,48,4.6,4.6,49,0.00,CLR,CLR,0.00,WeatherDisplay:10.36,2013-12-10 04:35:00,
2013-12-09 22:40:00,14.5,-1.2,30.26,NE,48,4.5,4.5,49,0.00,CLR,CLR,0.00,WeatherDisplay:10.36,2013-12-10 04:40:00,
2013-12-09 22:45:00,14.4,-1.3,30.26,NE,48,5.8,5.8,49,0.00,CLR,CLR,0.00,WeatherDisplay:10.36,2013-12-10 04:45:00,
2013-12-09 22:50:00,14.2,-1.5,30.23,NE,48,0.0,4.0,49,0.00,CLR,CLR,0.00,WeatherDisplay:10.36,2013-12-10 04:50:00,
2013-12-09 22:55:00,14.2,-1.5,30.23,NE,47,4.6,4.6,49,0.00,CLR,CLR,0.00,WeatherDisplay:10.36,2013-12-10 04:55:00,
2013-12-09 23:00:00,14.0,-1.7,30.23,NE,49,5.8,5.8,49,0.00,CLR,CLR,0.00,WeatherDisplay:10.36,2013-12-10 05:00:00,
2013-12-09 23:01:00,14.0,-1.7,30.23,NE,48,3.6,3.6,49,0.00,CLR,CLR,0.00,WeatherDisplay:10.36,2013-12-10 05:01:00,
2013-12-09 23:03:00,14.0,-1.7,30.23,NE,48,4.6,4.6,49,0.00,CLR,CLR,0.00,WeatherDisplay:10.36,2013-12-10 05:03:00,
2013-12-09 23:04:00,14.0,-1.7,30.26,NE,49,5.4,5.4,49,0.00,CLR,CLR,0.00,WeatherDisplay:10.36,2013-12-10 05:04:00,
2013-12-09 23:08:00,13.8,-1.8,30.26,NE,49,4.6,4.6,49,0.00,CLR,CLR,0.00,WeatherDisplay:10.36,2013-12-10 05:08:00,
2013-12-09 23:13:00,13.6,-2.0,30.26,NE,48,5.8,5.8,49,0.00,CLR,CLR,0.00,WeatherDisplay:10.36,2013-12-10 05:13:00,
2013-12-09 23:18:00,13.5,-2.2,30.26,NE,48,4.0,4.0,49,0.00,CLR,CLR,0.00,WeatherDisplay:10.36,2013-12-10 05:18:00,
2013-12-09 23:23:00,13.5,-2.2,30.26,NE,47,6.3,6.3,49,0.00,CLR,CLR,0.00,WeatherDisplay:10.36,2013-12-10 05:23:00,
2013-12-09 23:24:00,13.5,-2.2,30.26,NE,52,5.8,5.8,49,0.00,CLR,CLR,0.00,WeatherDisplay:10.36,2013-12-10 05:24:00,
2013-12-09 23:28:00,13.3,-2.3,30.26,NE,48,6.9,6.9,49,0.00,CLR,CLR,0.00,WeatherDisplay:10.36,2013-12-10 05:28:00,
2013-12-09 23:34:00,13.3,-2.3,30.26,NE,48,5.8,5.8,49,0.00,CLR,CLR,0.00,WeatherDisplay:10.36,2013-12-10 05:34:00,
2013-12-09 23:39:00,13.1,-2.5,30.26,NE,48,7.4,7.4,49,0.00,CLR,CLR,0.00,WeatherDisplay:10.36,2013-12-10 05:39:00,
2013-12-09 23:44:00,13.1,-2.5,30.26,NE,48,7.8,7.8,49,0.00,CLR,CLR,0.00,WeatherDisplay:10.36,2013-12-10 05:44:00,
2013-12-09 23:49:00,13.1,-2.5,30.26,NE,49,9.2,9.2,49,0.00,CLR,CLR,0.00,WeatherDisplay:10.36,2013-12-10 05:49:00,
2013-12-09 23:54:00,12.9,-2.7,30.26,NE,49,6.9,6.9,49,0.00,CLR,CLR,0.00,WeatherDisplay:10.36,2013-12-10 05:54:00,